Time,B instrument,Bx,By,Bz,sigma B,Ion instrument,Status,Tp_par,Tp_perp,carrot,r_sun,clat,clong,earth_he_angle,n_p,vp_x,vp_y,vp_z,vth_p_par,vth_p_perp
1980-10-08 00:50:22,-1,nan,nan,nan,nan,1,4,nan,nan,1700,0.87433428,-3.8748622,284.50629,90.795349,nan,nan,nan,nan,nan,nan
1980-10-08 01:34:40,-1,nan,nan,nan,nan,1,3,nan,nan,1700,0.87321705,-3.6128559,284.30945,91.004745,nan,308.897,-11.0341,2.44259,nan,nan
1980-10-08 01:41:44,-1,nan,nan,nan,nan,1,4,nan,nan,1700,0.87318718,-3.6133261,284.24646,91.004257,nan,nan,nan,nan,nan,nan
1980-10-08 03:27:29,-1,nan,nan,nan,nan,1,3,nan,nan,1700,0.87273455,-3.6204519,283.27032,90.996872,nan,298.887,-22.9185,-14.1619,nan,nan
1980-10-08 03:28:50,-1,nan,nan,nan,nan,1,3,nan,nan,1700,0.87273026,-3.6205187,283.25854,90.996811,nan,297.087,-16.5545,-12.7007,nan,nan
1980-10-08 03:30:11,-1,nan,nan,nan,nan,1,3,nan,nan,1700,0.87272173,-3.6206532,283.24277,90.996674,nan,298.659,-11.4109,-11.7925,nan,nan
1980-10-08 03:30:21,-1,nan,nan,nan,nan,1,3,nan,nan,1700,0.87272173,-3.6206532,283.24277,90.996674,nan,299.367,-11.1453,-11.3716,nan,nan
1980-10-08 03:31:42,-1,nan,nan,nan,nan,1,3,nan,nan,1700,0.87271744,-3.6207209,283.23099,90.996597,nan,299.717,-8.03529,-13.9921,nan,nan
1980-10-08 03:33:03,-1,nan,nan,nan,nan,1,3,nan,nan,1700,0.87270892,-3.6208544,283.21912,90.99646,nan,298.769,-9.93649,-14.6348,nan,nan
1980-10-08 03:34:24,-1,nan,nan,nan,nan,1,3,nan,nan,1700,0.87270463,-3.6209221,283.20343,90.996384,nan,299.949,-4.93715,-15.7825,nan,nan
1980-10-08 03:35:44,-1,nan,nan,nan,nan,1,3,nan,nan,1700,0.87270033,-3.6209888,283.19165,90.996323,nan,298.63,-7.13236,-11.0719,nan,nan
1980-10-08 03:38:26,-1,nan,nan,nan,nan,1,3,nan,nan,1700,0.87268752,-3.621191,283.168,90.996109,nan,297.4,-8.37072,-2.87319,nan,nan
1980-10-08 03:39:47,1,-2.2,-5.2,4.8,4.44089e-16,1,1,16002.1,18097.9,1700,0.87268329,-3.6212578,283.15622,90.996048,19.5862,301.286,2.3143,-10.6815,16.2535,17.2851
1980-10-08 03:41:09,1,-1.5,-3.9,5.84,0.195959,1,1,20091.9,19374.0,1700,0.8726747,-3.6213923,283.14435,90.995911,17.251,299.31,-6.45838,-15.2146,18.2125,17.8841
1980-10-08 03:42:30,1,-0.966667,-4.36667,5.43333,0.331662,1,1,14124.8,15954.4,1700,0.87267041,-3.62146,283.12866,90.995834,19.4449,298.057,1.01074,-12.9317,15.2703,16.2292
1980-10-08 03:43:51,1,-0.86,-5.08,4.34,0.215407,1,1,28922.3,20226.3,1700,0.87266618,-3.6215267,283.11688,90.995773,16.4372,299.161,1.01636,-11.0746,21.8511,18.2732
1980-10-08 03:45:12,1,-0.68,-5.78,3.76,0.391918,1,1,15159.8,17050.0,1700,0.8726576,-3.6216612,283.10501,90.995636,18.5661,298.638,2.13555,-8.43813,15.8199,16.7772
1980-10-08 03:46:33,1,-0.34,-5.76,2.5,0.144222,1,1,31350.5,18579.6,1700,0.87265337,-3.6217289,283.09323,90.99556,16.4738,294.075,1.1215,-0.730261,22.7499,17.5136
1980-10-08 03:47:54,1,-0.7,-5.4,4.36667,0.188562,1,1,16139.0,16911.9,1700,0.87264907,-3.6217957,283.08142,90.995483,18.8477,298.245,3.00701,-10.612,16.3229,16.7092
1980-10-08 03:49:15,1,-0.88,-5.4,4.24,0.419524,1,1,34189.2,20361.1,1700,0.87264049,-3.6219301,283.06958,90.995346,17.7342,296.52,-1.19229,-7.25707,23.7576,18.3341
1980-10-08 03:50:36,1,-0.866667,-5.66667,3.6,0.452155,1,1,19335.8,18508.1,1700,0.87263626,-3.6219978,283.05389,90.995285,17.8654,297.119,2.64318,-4.9672,17.8665,17.4799
1980-10-08 03:51:57,1,-1.65,-5.88333,2.93333,0.222361,1,1,34251.9,20124.1,1700,0.87263197,-3.6220646,283.04208,90.995209,17.8668,299.055,0.414356,-2.44629,23.7794,18.2271
1980-10-08 03:53:18,1,-1.16667,-5.9,2.75,0.376017,1,1,19859.6,17843.8,1700,0.87262344,-3.6221991,283.03024,90.995071,16.5623,298.046,2.06047,-3.64998,18.1068,17.1634
1980-10-08 03:54:39,1,-1.26,-5.68,1.94,0.449889,1,1,38049.8,18666.1,1700,0.87261915,-3.6222668,283.01846,90.99501,17.9177,297.801,-0.912933,-0.351684,25.0631,17.5543
1980-10-08 03:56:00,1,-1.71667,-5.55,3.0,0.300925,1,1,17273.8,16506.0,1700,0.87261057,-3.6224012,283.00659,90.994873,17.3869,298.786,-0.479155,-5.9647,16.887,16.5074
1980-10-08 03:57:21,1,-1.22,-5.78,3.06,0.411825,1,1,32774.2,20183.4,1700,0.87260634,-3.622468,282.99481,90.994797,16.8878,295.244,-3.22914,-2.87912,23.2608,18.2539
1980-10-08 03:58:42,1,-0.483333,-5.65,3.15,0.499722,1,1,22835.5,20122.3,1700,0.87260205,-3.6225357,282.97913,90.994736,18.0854,291.963,0.00257535,-4.71955,19.4162,18.2262
1980-10-08 04:00:03,1,-2.44,-5.7,2.76,0.364417,1,1,34507.9,17954.6,1700,0.87259352,-3.6226702,282.96725,90.994598,17.3721,300.33,-2.69753,-7.13684,23.8681,17.2166
1980-10-08 04:01:24,1,-1.83333,-5.83333,1.2,0.35746,1,1,42833.5,19387.6,1700,0.87258923,-3.6227369,282.95547,90.994522,16.9888,299.398,-0.0562517,4.12913,26.5919,17.8904
1980-10-08 04:02:45,1,-2.21667,-5.26667,1.23333,0.390512,1,1,37192.9,18497.8,1700,0.87258494,-3.6228046,282.9437,90.994461,16.935,300.201,-1.02219,1.77181,24.7792,17.475
1980-10-08 04:04:06,1,-2.75,-4.68333,0.7,0.23214,1,1,39292.8,20185.5,1700,0.87257636,-3.6229391,282.93182,90.994308,16.5001,302.168,-5.32797,3.43442,25.4692,18.2548
1980-10-08 04:05:27,1,-1.8,-5.16667,1.25,0.800868,1,1,38469.4,19715.0,1700,0.87257212,-3.6230059,282.92004,90.994247,17.8336,298.323,-3.21765,0.740947,25.2009,18.0408
1980-10-08 04:06:48,1,-2.93333,-4.78333,0.833333,0.243242,1,1,31817.5,20297.6,1700,0.87256783,-3.6230736,282.90433,90.994171,16.3163,301.518,-3.62118,-0.671049,22.9187,18.3054
1980-10-08 04:08:09,1,-3.31667,-4.53333,1.23333,0.25658,1,1,28678.0,17285.6,1700,0.87255925,-3.623208,282.89249,90.994034,16.1513,303.138,-7.63568,-1.74286,21.7587,16.8927
1980-10-08 04:09:30,1,-3.8,-4.13333,1.43333,0.362093,1,1,30083.3,22390.8,1700,0.87255496,-3.6232748,282.88071,90.993973,16.7117,304.122,-5.37044,-4.14716,22.2854,19.2262
1980-10-08 05:03:56,-1,nan,nan,nan,nan,1,3,nan,nan,1700,0.87232387,-3.6269083,282.37698,90.99025,nan,280.758,11.305,1.55849,nan,nan
1980-10-08 05:05:17,1,-0.06,-4.78,3.06,0.26533,1,1,34759.7,18220.1,1700,0.87231529,-3.6270428,282.36511,90.990112,15.2461,280.693,9.70452,2.8115,23.955,17.3434
1980-10-08 05:06:38,1,-1.9,-4.76,3.28,0.726636,1,1,25629.2,22453.1,1700,0.872311,-3.6271095,282.35333,90.990051,14.5301,289.282,14.6714,3.76612,20.5696,19.2529
1980-10-08 05:07:59,1,-1.3,-4.44,3.76,0.47833,1,1,31686.2,18342.2,1700,0.8723067,-3.6271772,282.34155,90.989975,15.3966,289.132,10.1783,2.73363,22.8714,17.4014
1980-10-08 05:09:20,1,-2.86,-4.32,3.26,0.293939,1,1,28359.7,19899.1,1700,0.87229812,-3.6273117,282.32968,90.989838,15.8053,295.501,9.61953,1.98078,21.6376,18.1248
1980-10-08 05:10:41,1,-2.9,-4.3,3.1,0.0,1,1,25811.7,17504.0,1700,0.87229389,-3.6273785,282.3179,90.989777,14.7173,295.669,6.39391,5.34082,20.6427,16.9991
1980-10-08 05:14:44,1,-3.62,-1.48,3.16,0.738647,1,1,29448.2,22729.9,1700,0.87227672,-3.6276474,282.27856,90.989502,14.7063,300.574,-0.473791,3.56077,22.0489,19.3712
1980-10-08 05:14:45,1,-3.53333,-1.73333,3.15,0.902004,1,1,28676.7,21294.8,1700,0.87320977,-3.8922091,282.0658,90.776733,14.6917,301.718,-5.98096,4.60308,21.7582,18.7497
1980-10-08 05:16:05,1,-1.16,-4.44,2.8,0.787909,1,1,25682.7,23921.2,1700,0.87226814,-3.6277819,282.26672,90.989365,15.4405,298.794,-3.24356,4.59213,20.591,19.8724
1980-10-08 05:16:06,1,-1.11667,-4.48333,2.73333,0.747217,1,1,21929.6,17110.9,1700,0.87226814,-3.6277819,282.26672,90.989365,16.1212,293.338,4.78026,8.40776,19.0271,16.8072
1980-10-08 05:17:27,1,1.05,-4.83333,1.2,0.296742,1,1,24913.1,17754.6,1700,0.87226385,-3.6278496,282.25491,90.989288,15.475,288.909,1.52789,14.8691,20.2802,17.1204
1980-10-08 05:18:48,1,1.22,-4.84,1.08,0.348712,1,1,16674.0,18702.0,1700,0.87225956,-3.6279163,282.24313,90.989227,15.8236,290.088,2.51964,13.7853,16.5912,17.5712
1980-10-08 05:20:09,1,1.26,-4.48,0.76,0.2498,1,1,25072.6,16442.9,1700,0.87225103,-3.6280508,282.22739,90.98909,15.1467,288.285,2.62221,15.0951,20.345,16.4758
1980-10-08 05:21:30,1,1.16667,-4.56667,0.516667,0.304138,1,1,19570.2,18965.9,1700,0.87224674,-3.6281185,282.21558,90.989014,16.4807,291.071,0.833238,16.1463,17.9744,17.6948
1980-10-08 05:22:51,1,1.18,-4.1,0.48,0.321248,1,1,21542.7,18809.1,1700,0.87224245,-3.6281853,282.2038,90.988953,15.9051,289.023,-3.05462,17.2236,18.8585,17.6215
1980-10-08 05:24:12,1,1.2,-4.03333,1.25,0.421966,1,1,20037.7,23557.4,1700,0.87223387,-3.6283197,282.19196,90.988815,16.6192,290.437,0.354034,14.0507,18.1879,19.7207
1980-10-08 05:25:33,1,-0.72,-3.88,4.34,0.386782,1,1,32735.9,22275.5,1700,0.87222958,-3.6283875,282.18015,90.988739,16.1045,292.458,1.25357,1.3797,23.2472,19.1766
1980-10-08 05:26:54,1,1.2,-4.0,0.5,0.365148,1,1,16575.1,19542.1,1700,0.87222528,-3.6284542,282.16837,90.988678,17.9775,290.288,0.861458,15.5686,16.5419,17.9615
1980-10-08 05:28:15,1,1.3,-4.4,1.24,0.377359,1,1,24466.4,19820.4,1700,0.8722167,-3.6285887,282.15262,90.988541,16.3273,289.728,-1.30368,12.0737,20.0975,18.089
1980-10-08 05:29:36,1,1.1,-4.7,1.86667,0.268742,1,1,16995.0,18251.4,1700,0.87221241,-3.6286564,282.14084,90.98848,18.2868,290.536,1.65798,11.368,16.7501,17.3583
1980-10-08 05:30:57,1,1.13333,-4.83333,1.8,0.272845,1,1,27915.6,20349.8,1700,0.87220812,-3.6287231,282.12903,90.988403,17.052,291.383,2.20745,9.68895,21.4675,18.3289
1980-10-08 05:32:18,1,0.85,-4.78333,2.31667,0.303223,1,1,17411.8,17414.8,1700,0.87219959,-3.6288576,282.11719,90.988266,19.4825,292.081,2.57454,10.2284,16.9543,16.9557
1980-10-08 05:33:39,1,1.62,-4.86,0.6,0.379473,1,1,26358.6,19996.6,1700,0.8721953,-3.6289244,282.10541,90.988205,16.8303,292.984,0.195242,12.4647,20.8602,18.1692
1980-10-08 05:35:00,1,0.683333,-5.13333,1.1,0.428499,1,1,14667.2,16930.7,1700,0.87218672,-3.6290588,282.09354,90.988068,19.1597,295.623,2.04646,11.4581,15.5608,16.7184
1980-10-08 05:36:21,1,0.75,-4.9,1.41667,0.252763,1,1,27701.8,20431.8,1700,0.87218243,-3.6291265,282.07785,90.987991,18.3439,295.219,5.7138,9.4465,21.3851,18.3659
1980-10-08 05:37:42,1,-0.0666667,-5.3,2.16667,0.473756,1,1,18049.7,18637.8,1700,0.87217814,-3.6291933,282.06607,90.98793,19.2408,298.453,4.44962,6.23592,17.262,17.541
1980-10-08 05:39:03,1,0.1,-5.4,2.83333,0.309121,1,1,26026.8,20886.6,1700,0.87216955,-3.6293278,282.0542,90.987793,17.5799,298.05,7.3443,4.47277,20.7285,18.5691
1980-10-08 05:40:24,1,0.3,-5.5,2.43333,0.149071,1,1,20702.1,19736.8,1700,0.87216532,-3.6293955,282.04242,90.987717,18.6069,296.033,4.02263,8.63609,18.4869,18.0508
1980-10-08 05:41:45,1,0.583333,-5.23333,2.58333,0.158114,1,1,26425.1,19546.3,1700,0.87216103,-3.6294622,282.03064,90.987656,17.9043,293.225,5.49519,6.02384,20.8865,17.9635
1980-10-08 05:43:06,1,0.4,-4.93333,3.03333,0.470225,1,1,18051.3,17826.7,1700,0.87215245,-3.6295967,282.01877,90.987518,19.2475,296.115,2.62504,-0.383486,17.2628,17.1551
1980-10-08 05:44:27,1,0.25,-5.2,2.76667,0.397562,1,1,26263.8,20533.8,1700,0.87214816,-3.6296644,282.00308,90.987442,19.1911,296.251,5.64336,3.54981,20.8227,18.4116
1980-10-08 05:45:48,1,0.333333,-5.78333,3.03333,0.262996,1,1,15504.2,20919.2,1700,0.87214386,-3.6297312,281.9913,90.987381,18.2373,296.878,3.15586,2.35102,15.9986,18.5836
1980-10-08 05:47:09,1,0.1,-6.0,2.5,1.38778e-17,1,1,26709.1,21275.4,1700,0.87213528,-3.6298656,281.97943,90.987244,18.0614,297.181,2.31055,4.5986,20.9985,18.7412
1980-10-08 05:48:30,1,0.1,-5.56667,1.03333,0.401386,1,1,27048.4,21773.3,1700,0.87213099,-3.6299334,281.96765,90.987167,17.7956,298.576,0.735709,10.3127,21.1314,18.9592
1980-10-08 05:49:51,1,-0.166667,-4.56667,1.23333,0.294392,1,1,28637.2,23989.6,1700,0.8721267,-3.6300001,281.95587,90.987106,18.4478,299.197,-0.885024,8.11422,21.7432,19.9008
1980-10-08 05:51:12,1,0.133333,-5.0,1.03333,0.253859,1,1,26549.6,22237.8,1700,0.87211818,-3.6301346,281.944,90.986969,18.6323,297.628,-0.221414,9.53206,20.9357,19.1604
1980-10-08 05:52:33,1,0.2,-4.94,1.22,0.289828,1,1,26401.6,25335.1,1700,0.87211388,-3.6302023,281.92831,90.986893,18.3332,298.959,-0.230749,7.42584,20.8772,20.4512
1980-10-08 05:53:54,1,-0.2,-5.04,1.3,0.241661,1,1,28693.0,21000.3,1700,0.87210959,-3.6302691,281.91653,90.986832,17.6254,297.9,-0.18738,10.9179,21.7643,18.6196
1980-10-08 05:55:15,1,-0.16,-5.04,1.06,0.31496,1,1,29534.8,26164.5,1700,0.87210101,-3.6304035,281.90466,90.986694,18.5429,300.454,-1.11163,8.19893,22.0813,20.7833
1980-10-08 05:56:36,1,-0.44,-5.5,0.26,0.20199,1,1,33057.1,20185.8,1700,0.87209672,-3.6304712,281.89288,90.986618,16.8793,299.06,1.06588,10.8772,23.3609,18.255
1980-10-08 05:57:57,1,-0.4,-5.5,0.1,5.72196e-17,1,1,26618.1,22807.5,1700,0.87209243,-3.630538,281.8811,90.986557,15.9671,300.51,3.48495,11.5355,20.9627,19.4043
1980-10-08 05:59:18,1,-0.4,-5.5,0.1,5.72196e-17,1,1,30155.5,20540.3,1700,0.87208384,-3.6306725,281.86923,90.98642,17.2697,300.548,2.72517,12.8348,22.3121,18.4145
1980-10-08 06:00:39,1,-0.433333,-5.43333,0.1,0.166667,1,1,27483.0,21623.3,1700,0.87207961,-3.6307402,281.85355,90.986359,16.4591,299.604,2.64411,11.9434,21.3005,18.8938
1980-10-08 06:02:00,1,-0.433333,-5.43333,0.1,0.166667,1,1,31696.6,21004.5,1700,0.87207103,-3.6308746,281.84171,90.986221,17.3838,299.216,2.57863,12.9038,22.8752,18.6215
1980-10-08 06:03:21,1,-0.383333,-5.4,0.1,0.211476,1,1,27312.3,21261.1,1700,0.87206674,-3.6309414,281.8299,90.986145,16.7463,299.84,1.953,11.8298,21.2343,18.7349
1980-10-08 06:04:42,1,-0.5,-5.15,0.1,0.221736,1,1,31980.4,18792.8,1700,0.87206244,-3.6310091,281.81812,90.986084,17.1536,299.139,1.3899,14.3905,22.9773,17.6138
1980-10-08 06:06:03,1,-0.366667,-5.3,-0.166667,0.459468,1,1,26564.3,21754.7,1700,0.87205386,-3.6311436,281.80627,90.985947,16.4361,298.687,2.07776,13.5398,20.9415,18.9511
1980-10-08 06:07:24,1,-0.533333,-5.08333,-0.0333333,0.33541,1,1,29716.8,20147.4,1700,0.87204957,-3.6312103,281.79446,90.98587,16.7643,298.73,1.35306,13.7497,22.1492,18.2376
1980-10-08 06:08:45,1,-0.466667,-5.06667,0.1,0.194365,1,1,25826.3,21823.7,1700,0.87204528,-3.631278,281.77878,90.985809,17.4308,299.588,1.81956,12.595,20.6485,18.9811
1980-10-08 06:10:06,1,-0.3,-4.8,0.1,0.223607,1,1,33020.8,20404.6,1700,0.8720367,-3.6314125,281.76694,90.985672,17.7148,298.407,-1.88475,11.7579,23.3481,18.3536
1980-10-08 06:11:27,1,-0.3,-4.8,0.166667,0.268742,1,1,28536.4,22972.0,1700,0.8720324,-3.6314802,281.75513,90.985596,18.189,299.03,-2.40324,10.9303,21.7049,19.4741
1980-10-08 06:12:48,1,-0.116667,-4.7,-0.3,0.501387,1,1,13856.3,18969.5,1700,0.87202811,-3.631547,281.74335,90.985535,20.3494,298.018,-0.144729,13.1905,15.1245,17.6965
1980-10-08 06:14:09,1,-0.133333,-4.46667,0.1,0.210819,1,1,26308.3,21671.7,1700,0.87201953,-3.6316814,281.73151,90.985397,17.9824,298.659,-3.24676,12.3918,20.8403,18.9149
1980-10-08 06:15:30,1,-0.05,-4.5,-0.0333333,0.371558,1,1,28444.0,19278.1,1700,0.87201524,-3.6317492,281.71973,90.985336,17.3307,297.481,-2.36933,12.1724,21.6697,17.8398
1980-10-08 06:16:51,1,0.1,-4.5,0.1,0.238048,1,1,24163.2,22517.1,1700,0.87201095,-3.6318159,281.70401,90.98526,18.0642,297.991,-4.26086,11.8925,19.9726,19.2803
1980-10-08 06:18:12,1,0.4,-4.2,-0.566667,0.377124,1,1,20696.5,19103.6,1700,0.87200236,-3.6319504,281.69217,90.985123,17.2534,296.237,-2.5432,13.7541,18.4844,17.7589
1980-10-08 06:19:33,1,0.166667,-4.3,-0.7,0.262467,1,1,27287.0,20941.8,1700,0.87199807,-3.6320181,281.68039,90.985062,16.9019,298.444,-4.5337,11.7065,21.2244,18.5936
1980-10-08 06:20:54,1,0.533333,-3.86667,-0.3,0.484195,1,1,26350.0,17440.3,1700,0.87199378,-3.6320858,281.66858,90.984985,18.2059,296.113,-4.75624,12.7443,20.8568,16.9682
1980-10-08 06:22:15,1,0.3,-4.22,-0.22,0.437264,1,1,23543.0,22547.1,1700,0.8719852,-3.6322203,281.65674,90.984848,18.0692,296.422,-6.0086,11.6009,19.7146,19.2932
1980-10-08 06:23:36,1,0.2,-4.33333,0.1,0.149071,1,1,10355.9,18171.9,1700,0.87198091,-3.632287,281.64496,90.984787,24.6177,298.063,-0.0393839,12.504,13.0753,17.3204
1980-10-08 06:24:57,1,0.1,-4.31667,-0.566667,0.387657,1,1,26891.4,22672.5,1700,0.87197661,-3.6323547,281.62924,90.984711,18.6873,297.187,-4.33001,11.0375,21.07,19.3467
1980-10-08 06:26:18,1,0.0,-4.0,-0.766667,0.268742,1,1,22990.4,18841.5,1700,0.87196803,-3.6324892,281.6174,90.984573,17.8144,297.201,-3.49126,12.084,19.4819,17.6366
1980-10-08 06:27:39,1,0.233333,-4.4,-0.166667,0.433333,1,1,26272.9,22328.7,1700,0.87196374,-3.632556,281.60562,90.984512,17.6257,296.168,-2.79121,11.7333,20.8263,19.1995
1980-10-08 06:29:00,1,-0.0333333,-4.1,-0.433333,0.463081,1,1,26058.8,17635.8,1700,0.87195516,-3.6326904,281.59375,90.984375,17.7455,296.749,-4.15835,12.7925,20.7413,17.063
1980-10-08 06:30:21,1,0.1,-4.5,-0.0333333,0.381517,1,1,28356.1,21590.9,1700,0.87195086,-3.6327581,281.58197,90.984314,17.943,297.401,-2.31588,10.9736,21.6362,18.8796
1980-10-08 06:31:42,1,0.05,-4.38333,-0.0333333,0.32059,1,1,10675.0,19144.6,1700,0.87194657,-3.6328259,281.57019,90.984238,23.5682,297.382,0.557152,11.6395,13.2752,17.7779
1980-10-08 06:33:03,1,-0.0666667,-4.3,-0.0333333,0.343188,1,1,27873.0,21852.7,1700,0.87193799,-3.6329603,281.55441,90.9841,18.4394,295.465,-1.66853,10.4462,21.4511,18.9937
1980-10-08 06:34:24,1,-0.216667,-4.3,-0.583333,0.403457,1,1,19695.5,19285.3,1700,0.8719337,-3.6330271,281.54263,90.984039,18.9978,296.997,-0.619059,12.1157,18.0319,17.8431
1980-10-08 06:35:45,1,-0.3,-4.31667,-0.2,0.466964,1,1,29165.2,21346.4,1700,0.87192941,-3.6330948,281.53085,90.983963,18.0239,296.894,-0.700609,10.9927,21.9427,18.7724
1980-10-08 06:37:06,1,0.0666667,-4.66667,0.1,0.194365,1,1,9168.29,17802.4,1700,0.87192082,-3.6332293,281.51898,90.983826,28.3382,297.184,1.09566,10.1196,12.3027,17.1434
1980-10-08 06:38:27,1,-0.683333,-4.13333,-0.133333,0.364005,1,1,28169.4,19418.5,1700,0.87191653,-3.633296,281.5072,90.983765,17.7523,298.465,-2.38345,11.2273,21.5649,17.9046
1980-10-08 06:39:48,1,-0.433333,-4.68333,0.233333,0.275379,1,1,27256.2,18986.6,1700,0.87191224,-3.6333637,281.49542,90.983688,18.8409,297.404,-1.18322,9.72325,21.2124,17.7044
1980-10-08 06:41:09,1,0.62,-4.6,3.1,0.305941,1,1,27460.1,21220.1,1700,0.87190366,-3.6334982,281.47964,90.983551,18.2054,292.608,-4.18002,1.7805,21.2917,18.7168
1980-10-08 06:42:30,-1,nan,nan,nan,nan,1,3,nan,nan,1700,0.87189937,-3.6335659,281.46786,90.98349,nan,292.669,-2.08425,-4.18198,nan,nan
1980-10-08 06:46:33,-1,nan,nan,nan,nan,1,3,nan,nan,1700,0.8718822,-3.6338348,281.43243,90.983215,nan,292.541,-6.95006,-0.454594,nan,nan
1980-10-08 06:47:54,-1,nan,nan,nan,nan,1,3,nan,nan,1700,0.87187791,-3.6339016,281.42065,90.983154,nan,293.799,-0.39831,-0.43701,nan,nan
1980-10-08 06:49:15,-1,nan,nan,nan,nan,1,3,nan,nan,1700,0.87186933,-3.6340361,281.40491,90.983017,nan,290.3,-4.84984,-1.7035,nan,nan
1980-10-08 06:50:36,-1,nan,nan,nan,nan,1,3,nan,nan,1700,0.87186503,-3.6341038,281.3931,90.982941,nan,293.289,-1.61142,-0.897122,nan,nan
1980-10-08 06:51:57,-1,nan,nan,nan,nan,1,3,nan,nan,1700,0.87186074,-3.6341715,281.38132,90.98288,nan,292.455,-5.8544,0.540165,nan,nan
1980-10-08 06:53:18,1,1.2,-4.75,3.8,0.180278,1,1,19776.1,20363.3,1700,0.87185216,-3.634306,281.36948,90.982742,18.3571,293.758,-0.705895,1.25152,18.0688,18.335
1980-10-08 06:54:39,1,1.3,-4.95,3.6,0.206155,1,1,24048.6,18322.7,1700,0.87184787,-3.6343727,281.35767,90.982666,18.0085,293.02,-5.05026,3.52348,19.9252,17.3921
1980-10-08 06:56:00,1,1.13333,-5.1,1.26667,0.301846,1,1,16516.3,18705.2,1700,0.87183928,-3.6345072,281.34583,90.982529,19.2613,294.577,0.20541,7.77648,16.5126,17.5727
1980-10-08 06:57:21,1,1.3,-5.0,1.08,0.324962,1,1,22499.4,20194.5,1700,0.87183499,-3.6345749,281.33014,90.982468,18.642,293.38,-3.78311,7.56186,19.2727,18.2589
1980-10-08 06:58:42,1,1.05,-5.0,0.933333,0.254406,1,1,16233.4,18081.2,1700,0.8718307,-3.6346416,281.31833,90.982391,20.6996,294.98,0.244131,9.03963,16.3705,17.2771
1980-10-08 07:00:03,1,0.966667,-5.1,0.733333,0.312694,1,1,23857.8,19203.9,1700,0.87182218,-3.6347771,281.30649,90.982269,18.0059,293.653,-3.42137,8.76939,19.846,17.8055
1980-10-08 07:01:24,1,0.6,-5.0,0.633333,0.188562,1,1,18810.7,18139.2,1700,0.87181783,-3.6348438,281.29471,90.982193,19.62,294.736,0.218192,10.6477,17.6222,17.3048
1980-10-08 07:02:45,1,0.8,-4.9,0.616667,0.260875,1,1,25848.0,20662.0,1700,0.87181354,-3.6349115,281.28293,90.982132,18.0278,294.611,-2.79383,9.65065,20.6572,18.469
1980-10-08 07:04:06,1,0.866667,-4.86667,0.633333,0.270801,1,1,16185.3,17645.8,1700,0.87180495,-3.635046,281.27106,90.981995,20.074,295.012,0.0767945,10.0266,16.3462,17.0678
1980-10-08 07:05:27,1,0.133333,-4.21667,0.1,0.252212,1,1,23991.8,20698.2,1700,0.87180066,-3.6351137,281.25537,90.981918,20.1116,297.563,-6.34007,9.86417,19.9017,18.4852
1980-10-08 07:06:48,1,0.466667,-4.41667,0.233333,0.304138,1,1,15234.4,19093.2,1700,0.87179637,-3.6351805,281.24359,90.981857,20.8604,297.093,-0.522827,8.91806,15.8588,17.7541
1980-10-08 07:08:09,1,0.466667,-4.11667,0.3,0.337062,1,1,27365.3,22396.7,1700,0.87178779,-3.6353149,281.23172,90.98172,19.3593,296.631,-6.13163,9.121,21.2548,19.2287
1980-10-08 07:09:30,1,0.0166667,-3.9,-0.566667,0.396162,1,1,25734.2,17009.1,1700,0.87178349,-3.6353827,281.21994,90.981659,18.9528,298.086,-5.58462,12.8532,20.6117,16.7571
1980-10-08 07:10:51,1,0.3,-3.96667,0.1,0.298142,1,1,16758.6,19541.5,1700,0.8717792,-3.6354504,281.20816,90.981583,19.3649,295.472,-7.71284,11.9976,16.6332,17.9613
1980-10-08 07:12:12,1,-0.183333,-3.7,-0.666667,0.440013,1,1,20115.6,16939.2,1700,0.87177062,-3.6355848,281.19629,90.981445,18.6541,296.677,-3.55532,13.0621,18.2232,16.7226
1980-10-08 07:13:33,1,-0.466667,-3.53333,-0.916667,0.32532,1,1,23472.5,20966.7,1700,0.87176633,-3.6356516,281.1806,90.981384,18.4486,297.558,-5.96291,11.7532,19.6851,18.6047
1980-10-08 07:14:54,1,-0.15,-3.6,-0.85,0.254951,1,1,22192.5,18502.4,1700,0.87176204,-3.6357193,281.16882,90.981308,17.8573,295.626,-4.16665,11.018,19.1408,17.4772
1980-10-08 07:16:15,1,-0.6,-3.43333,-0.8,0.268742,1,1,26912.2,22346.9,1700,0.87175339,-3.6358538,281.15695,90.981171,18.5182,296.514,-5.7406,8.74302,21.0781,19.2073
1980-10-08 07:17:36,1,-0.25,-3.43333,-0.35,0.473169,1,1,27861.2,19046.3,1700,0.8717491,-3.6359215,281.14517,90.98111,18.553,295.911,-4.71777,11.0121,21.4466,17.7322
1980-10-08 07:18:57,1,-0.45,-3.28333,-0.116667,0.329562,1,1,29177.6,20659.7,1700,0.87174481,-3.6359882,281.13339,90.981033,18.5113,295.962,-4.83106,12.0226,21.9474,18.468
1980-10-08 07:20:18,1,-0.566667,-3.33333,-0.133333,0.341565,1,1,28163.6,18904.0,1700,0.87173623,-3.6361237,281.12155,90.980911,19.308,296.276,-6.21044,11.4915,21.5626,17.6659
1980-10-08 07:21:39,1,-0.833333,-2.75,-0.4,0.517741,1,1,29723.4,19504.7,1700,0.87173194,-3.6361904,281.10583,90.980835,18.577,296.428,-6.00705,10.3199,22.1517,17.9444
1980-10-08 07:23:00,1,-0.633333,-3.38333,-0.733333,0.415331,1,1,26515.6,18836.7,1700,0.87172335,-3.6363249,281.09399,90.980698,18.0116,295.765,-4.96286,10.4317,20.9223,17.6344
1980-10-08 07:24:20,1,-0.5,-3.12,-0.48,0.532165,1,1,29586.3,21133.3,1700,0.87171906,-3.6363926,281.08221,90.980637,18.2505,295.942,-4.60077,9.90779,22.1006,18.6785
1980-10-08 07:25:41,-1,nan,nan,nan,nan,1,4,nan,nan,1700,0.87171477,-3.6364603,281.0704,90.98056,nan,nan,nan,nan,nan,nan
1980-10-08 07:27:02,1,-0.2,-3.2,0.1,0.0,1,1,25477.8,22210.5,1700,0.87170619,-3.6365948,281.05856,90.980423,18.7795,295.556,-5.41527,10.0898,20.5087,19.1486
1980-10-08 07:28:23,1,-0.4,-3.26667,0.0333333,0.156347,1,1,27714.7,18392.6,1700,0.8717019,-3.6366615,281.04678,90.980362,18.7631,294.538,-5.46292,10.5635,21.3901,17.4253
1980-10-08 07:40:32,-1,nan,nan,nan,nan,1,3,nan,nan,1700,0.87165034,-3.6374702,280.93268,90.979553,nan,297.112,-4.96406,8.48403,nan,nan
1980-10-08 07:41:53,1,-0.9,-3.5,0.0,0.0,1,1,27357.3,18128.8,1700,0.87164605,-3.637537,280.9209,90.979477,19.0287,296.078,-3.97588,8.94242,21.2517,17.2999
1980-10-08 07:43:14,1,-0.74,-3.42,0.0,0.219089,1,1,27899.9,21320.4,1700,0.87163746,-3.6376715,280.90903,90.97934,18.7142,295.344,-4.5381,7.03484,21.4615,18.761
1980-10-08 07:44:35,1,-0.633333,-3.06667,0.0,0.380058,1,1,27601.6,18084.5,1700,0.87163317,-3.6377392,280.89725,90.979279,18.1598,295.347,-5.31488,9.075,21.3464,17.2787
1980-10-08 07:45:57,1,-0.96,-3.54,-0.16,0.350999,1,1,27939.0,18216.9,1700,0.87162882,-3.6378069,280.88156,90.979202,18.766,296.48,-4.4257,9.60624,21.4765,17.3418
1980-10-08 07:50:00,-1,nan,nan,nan,nan,1,3,nan,nan,1700,0.87160736,-3.6381426,280.84607,90.978867,nan,300.646,-48.9716,7.61038,nan,nan
1980-10-08 07:51:20,1,-0.8,-3.45,0.0,0.193649,1,1,26576.0,20444.5,1700,0.87160307,-3.6382103,280.83429,90.978806,18.9079,295.777,-5.08843,7.49727,20.9461,18.3715